Location: Larrial
(48.2758°N, 4.5331°W)
Time: 10:43:34
(UTC+00:00)

VELOX 1 - Visible Passes

Search period start: 01 December 2021 00:00
Search period end: 11 December 2021 00:00
Orbit: 627 x 641 km, 98.3° (Epoch: 30 November)

Date Brightness Start Highest point End Pass type
(mag) Time Alt. Az. Time Alt. Az. Time Alt. Az.
01 Dec ? 17:49:30 10° N 17:53:38 39° WNW 17:57:44 10° SW visible
02 Dec ? 18:11:30 10° N 18:15:10 26° WNW 18:18:48 10° WSW visible
03 Dec ? 16:56:19 10° NNE 17:00:44 64° ESE 17:05:06 10° S visible
03 Dec ? 18:33:44 10° NNW 18:36:37 17° WNW 18:39:30 10° W visible
04 Dec ? 17:17:59 10° NNE 17:22:25 79° WNW 17:26:49 10° SSW visible
04 Dec ? 18:56:31 10° NW 18:58:02 12° NW 18:59:31 10° WNW visible
05 Dec ? 17:39:46 10° N 17:44:03 49° WNW 17:48:17 10° SW visible
06 Dec ? 18:01:41 10° N 18:05:36 31° WNW 18:09:28 10° SW visible
07 Dec ? 18:23:47 10° NNW 18:27:05 21° WNW 18:30:22 10° WSW visible
08 Dec ? 17:08:19 10° NNE 17:12:46 82° ESE 17:17:10 10° SSW visible
08 Dec ? 18:46:12 10° NNW 18:48:30 14° WNW 18:50:48 10° W visible
09 Dec ? 17:30:02 10° N 17:34:24 62° WNW 17:38:45 10° SSW visible
10 Dec ? 17:51:53 10° N 17:55:59 39° WNW 18:00:03 10° SW visible
